Location: Baix
(44.7118°N, 4.7648°E)
Time: 23:57:42
(UTC+00:00)

Courier 1B - All Passes

Search period start: 05 December 2020 00:00
Search period end: 15 December 2020 00:00
Orbit: 962 x 1209 km, 28.3° (Epoch: 05 December)

Date Brightness Start Highest point End Pass type
(mag) Time Alt. Az. Time Alt. Az. Time Alt. Az.
05 Dec - 19:08:09 10° SSW 19:11:22 14° SSE 19:14:37 10° SE visible
05 Dec - 20:59:50 10° SW 21:04:12 19° S 21:08:40 10° SE visible
05 Dec - 22:53:36 10° SW 22:57:06 15° SSW 23:00:41 10° SSE night (unlit)
06 Dec - 18:15:46 10° S 18:17:57 12° SSE 18:20:08 10° SE visible
06 Dec - 20:06:31 10° SW 20:10:44 18° S 20:15:01 10° SE visible
06 Dec - 21:59:45 10° SW 22:03:37 16° S 22:07:34 10° SSE night (unlit)
07 Dec - 19:13:18 10° SSW 19:17:17 17° S 19:21:17 10° SE visible
07 Dec - 21:06:04 10° SW 21:10:08 17° S 21:14:18 10° SSE visible
07 Dec - 23:02:43 10° SSW 23:02:58 10° SSW 23:03:12 10° SSW night (unlit)
08 Dec - 18:20:13 10° SSW 18:23:50 15° SSE 18:27:27 10° SE visible
08 Dec - 20:12:30 10° SW 20:16:40 18° S 20:20:55 10° SE visible
08 Dec - 22:07:04 10° SW 22:09:30 12° SSW 22:11:59 10° S night (unlit)
09 Dec - 17:27:22 10° SSW 17:30:24 14° SSE 17:33:25 10° SE visible
09 Dec - 19:19:01 10° SW 19:23:13 18° S 19:27:26 10° SE visible
09 Dec - 21:12:51 10° SW 21:16:03 14° SSW 21:19:19 10° SSE night (unlit)
10 Dec - 16:34:55 10° S 16:36:58 11° SSE 16:39:00 10° SE visible
10 Dec - 18:25:38 10° SW 18:29:46 18° S 18:33:53 10° SE visible
10 Dec - 20:18:55 10° SW 20:22:37 16° S 20:26:20 10° SSE visible
11 Dec - 17:32:20 10° SSW 17:36:19 17° S 17:40:15 10° SE visible
11 Dec - 19:25:10 10° SW 19:29:10 17° S 19:33:10 10° SSE visible
12 Dec - 16:39:09 10° SSW 16:42:51 16° S 16:46:30 10° SE visible
12 Dec - 18:31:31 10° SW 18:35:43 18° S 18:39:53 10° SE visible
12 Dec - 20:26:10 10° SW 20:28:30 12° SSW 20:30:51 10° S visible
13 Dec - 15:46:11 10° SSW 15:49:24 14° SSE 15:52:34 10° SE daylight
13 Dec - 17:37:57 10° SW 17:42:15 18° S 17:46:30 10° SE visible
13 Dec - 19:31:50 10° SW 19:35:05 14° SSW 19:38:19 10° SSE visible
14 Dec - 14:53:34 10° S 14:55:56 12° SSE 14:58:16 10° SE daylight
14 Dec - 16:44:27 10° SW 16:48:47 18° S 16:53:01 10° SE visible
14 Dec - 18:37:50 10° SW 18:41:39 16° S 18:45:25 10° SSE visible
